Location: Morisset
(33.1080°S, 151.4871°E)
Time: 08:31:47
(UTC+00:00)

Cosmos 2034 Rocket - Pass Details

Date: 29 October 2020
Orbit: 958 x 1001 km, 82.9° (Epoch: 28 November)

Event Time Altitude Azimuth Distance (km) Brightness Sun altitude
Exits shadow 16:49:37 29° 7° (N) 1,728 5.0 -24.5°
Maximum altitude 16:53:01 74° 86° (E) 1,037 4.1 -23.9°
Drops below altitude 10° 16:59:26 10° 170° (S) 2,792 7.0 -22.9°
Sets 17:01:59 0° 171° (S) 3,751 7.7 -22.4°
